Home > Weather > Hürth > Past weeks

Flag for Germany Past Weather in Hürth, North Rhine-Westphalia, Germany — Yesterday and Last 2 Weeks

Now
64 °F

Broken clouds.


Feels Like: 64 °F
Forecast: 60 / 70 °F
Wind: 3 mph from North

Location: Noervenich

Current Time: Jun 28, 2016 at 11:44:56 AM

Latest Report: Jun 28, 2016 at 10:20 AM


Visibility: N/A

Pressure: 30.07 "Hg

Humidity: 73%

Dew Point: 55 °F

Location of HürthLocation

Past Weather in Hürth — Graph

°F

Hürth Temperature Yesterday

Maximum temperature yesterday: 68 °F (at 5:50 PM)
Minimum temperature yesterday: 54 °F (at 1:20 AM)
Average temperature yesterday: 60 °F

High & Low Weather Summary for the Past Weeks

 TemperatureHumidityPressure
High91 °F (Jun 23, 2:20 PM)100% (Jun 16, 11:20 PM)30.27 "Hg (Jun 16, 11:20 PM)
Low48 °F (Jun 16, 4:20 AM)41% (Jun 23, 4:20 PM)29.47 "Hg (Jun 14, 5:20 PM)
Average62 °F80%29.93 "Hg
* Reported Jun 13 10:20 AM — Jun 28 10:20 AM, Hürth, Weather by CustomWeather, © 2016

Note: Actual official high and low records may vary slightly from our data, if they occured in-between our weather recording intervals... More about our weather records

Advertising

Hürth Weather History for the Previous 24 Hours

Scroll right to see more
 ConditionsComfort  
Time TempWeatherWind HumidityBarometerVisibility
10:20 AM
Tue, Jun 28
64 °FBroken clouds.3 mph73%30.07 "HgN/A
9:20 AM63 °FPartly sunny.3 mph77%30.07 "HgN/A
8:20 AM61 °FBroken clouds.2 mph83%30.09 "HgN/A
7:20 AM57 °FBroken clouds.1 mph94%30.09 "HgN/A
6:20 AM57 °FPartly cloudy.No wind94%30.09 "HgN/A
5:20 AM57 °FPassing clouds.1 mph94%30.09 "HgN/A
4:20 AM57 °FPassing clouds.1 mph94%30.09 "HgN/A
3:20 AM59 °FPassing clouds.No wind88%30.09 "HgN/A
2:20 AM59 °FPassing clouds.1 mph94%30.12 "HgN/A
1:20 AM59 °FPassing clouds.2 mph88%30.12 "HgN/A
12:20 AM59 °FPassing clouds.2 mph88%30.12 "HgN/A
11:20 PM
Mon, Jun 27
59 °FPassing clouds.3 mph88%30.12 "HgN/A
10:20 PM61 °FPartly sunny.2 mph88%30.09 "HgN/A
9:20 PM63 °FBroken clouds.5 mph83%30.09 "HgN/A
8:20 PM64 °FPartly sunny.9 mph83%30.07 "HgN/A
7:20 PM66 °FBroken clouds.12 mph73%30.07 "HgN/A
6:20 PM68 °FPartly sunny.9 mph69%30.07 "HgN/A
5:50 PM68 °FBroken clouds.10 mph69%30.07 "HgN/A
5:20 PM66 °FBroken clouds.12 mph78%30.07 "HgN/A
4:20 PM64 °FPartly sunny.8 mph83%30.07 "HgN/A
3:20 PM64 °FPartly sunny.1 mph83%30.07 "HgN/A
2:20 PM64 °FPartly sunny.5 mph78%30.07 "HgN/A
1:20 PM64 °FPartly sunny.5 mph73%30.07 "HgN/A
12:20 PM63 °FPartly sunny.7 mph73%30.09 "HgN/A
11:20 AM63 °FPartly sunny.3 mph68%30.09 "HgN/A
Weather by CustomWeather, © 2016

See weather overviewHow to use our weather pages